Location: ??????
(56.0120°N, 39.1740°E)
Time: 11:20:00
(UTC+00:00)

Cosmos 2297 - Pass Details

Date: 14 April 2026
Orbit: 833 x 859 km, 71.0° (Epoch: 10 May)

Event Time Altitude Azimuth Distance (km) Brightness Sun altitude
Rises 18:21:38 0° 323° (NW) 3,444 8.7 -14.4°
Reaches altitude 10° 18:24:11 10° 329° (NNW) 2,506 7.4 -14.6°
Maximum altitude 18:29:47 49° 45° (NE) 1,099 4.3 -15.2°
Enters shadow 18:33:28 21° 112° (ESE) 1,849 4.9 -15.5°
